Regional Weather Roundup
Issued by NWS

Home | Current Version | Previous Version | Text Only | Print | Product List | Glossary On
Versions: 1 2 3 4 5 6 7 8 9 10 11 12 13 14 15 16 17 18 19 20 21 22 23 24 25 26 27 28 29 30 31 32 33 34 35 36 37 38 39 40 41 42 43 44 45 46 47 48 49 50
000
ASUS44 KBMX 231510
RWRAL

ALABAMA REGIONAL WEATHER ROUNDUP
NATIONAL WEATHER SERVICE BIRMINGHAM AL
900 AM CST TUE JAN 23 2018

NOTE: "FAIR" INDICATES FEW OR NO CLOUDS BELOW 12,000 FEET
WITH NO SIGNIFICANT WEATHER AND/OR OBSTRUCTIONS TO VISIBILITY.

THE REMARK "TC" DENOTES TEMPERATURE IN DEGREES CELSIUS.

ALZ001>011-014-016>018-020-231600-
NORTH ALABAMA

CITY           SKY/WX    TMP DP  RH WIND       PRES   REMARKS
MUSCLE SHOALS  FAIR      45  31  58 W10       30.03R
HUNTSVILLE     FAIR      46  33  60 W13       30.03R
DECATUR        FAIR      45  31  58 W13       30.03R
HALEYVILLE     FAIR      42  31  64 W10G16    30.05R
GADSDEN        FAIR      48  31  51 W14       30.05R
$$

ALZ012-013-022-023-030>036-040>044-231600-
WEST CENTRAL ALABAMA

CITY           SKY/WX    TMP DP  RH WIND       PRES   REMARKS
TUSCALOOSA     FAIR      47  32  56 W10       30.10R
DEMOPOLIS        N/A     49  29  45 W13G18    30.13R
$$

ALZ015-024>026-033>036-041>044-231600-
CENTRAL ALABAMA

CITY           SKY/WX    TMP DP  RH WIND       PRES   REMARKS
BIRMINGHAM     FAIR      46  30  53 W13       30.08R
MONTGOMERY     FAIR      50  31  48 W10       30.10R
SHELBY CO ARPT FAIR      47  31  53 W13G21    30.07R
MAXWELL AFB    SUNNY     48  36  61 W8        30.08R
GREENVILLE     FAIR      50  29  44 NW8       30.09R
SELMA          FAIR      48  32  53 W9        30.10R
PRATTVILLE     FAIR      47  33  58 W9        30.09R
BESSEMER       FAIR      46  30  53 W9G18     30.07R
TALLADEGA      FAIR      47  31  53 W7        30.06R
PELL CITY      SUNNY     48  32  53 SW6       30.07R
MARION         FAIR      48  32  54 NW10G24   30.10R
SYLACAUGA      FAIR      47  37  66 W7        30.07R
$$

ALZ019-021-028-029-037-038-045>048-231600-
EAST CENTRAL ALABAMA

CITY           SKY/WX    TMP DP  RH WIND       PRES   REMARKS
ANNISTON       FAIR      47  31  53 W9        30.05R
ALEXANDER CITY FAIR      47  37  66 W8        30.06R
AUBURN         FAIR      48  32  53 W8        30.07R
$$

ALZ051>064-231600-
SOUTHWEST ALABAMA

CITY           SKY/WX    TMP DP  RH WIND       PRES   REMARKS
MOBILE         FAIR      52  31  44 VRB6      30.15R
BROOKLEY FIELD FAIR      55  30  38 NW9       30.16R
EVERGREEN      FAIR      51  31  46 VRB6      30.12R
$$

ALZ049-050-065>069-231600-
SOUTHEAST ALABAMA

CITY           SKY/WX    TMP DP  RH WIND       PRES   REMARKS
DOTHAN         FAIR      54  30  40 NW14      30.13R
OZARK          FAIR      54  30  41 NW9G16    30.10R
TROY           FAIR      51  31  46 NW8       30.10R
EUFAULA        FAIR      56  32  40 VRB7      30.08R
$$



USA.gov is the U.S. government's official web portal to all federal, state and local government web resources and services.